User: anonymous   Login
Location: Unspecified
(51.0950°N, 12.9690°E)
Time: 14:39:49
(UTC+00:00)
Language:

Meteor 1-11 - Orbit

View from above orbital plane
View from above orbital plane
View from above satellite
View from above satellite

Ground track
Ground track

The orbit data is extracted from the following two-line orbital elements,

1  5917U 72022A   22020.11379744  .00000161  00000-0  86038-4 0  9994
2  5917  81.2221  52.1985 0030662 189.7137 170.3445 14.08735672558132
Epoch (UTC): 20 January 2022 02:43:52
Eccentricity: 0.0030662
inclination: 81.2221°
perigee height: 841 km
apogee height: 886 km
right ascension of ascending node: 52.1985°
argument of perigee: 189.7137°
revolutions per day: 14.08735672
mean anomaly at epoch: 170.3445°
orbit number at epoch: 55813

The dashed part of the orbit path shows where the satellite is in the earth's shadow,  

DLR